SCP
0 0 0 0 0 0 0 0 0 0 0 0 0 0 0 0 0 0 0 0 0 0 0 0 0 0 0 0 0 0 0 0 0 0 0 0 0 0 0 0 0 0 0
0 0 0 0 0 0 0 0 0 0 0 0 0 0 0 0 0 0 0 0 0 0 0 0 0 0 0 0 0 0 0 0 0 0 0 0 0 0 0 0 0 0 0
0 0 0 0 0 0 0 0 0 0 0 0 0 0 0 0 0 0 0 0 0 0 0 0 0 0 0 0 0 0 0 0 0 0 0 0 0 0 0 0 0 0 0
0 0 0 0 0 0 0 0 0 0 0 0 0 0 0 0 0 0 0 0 0 0 0 0 0 0 0 0 0 0 0 0 0 0 0 0 0 0 0 0 0 0 0
0 0 0 0 0 0 0 0 0 0 0 0 0 0 0 0 0 0 0 0 0 0 0 0 0 0 0 0 0 0 0 0 0 0 0 0 0 0 0 0 0 0 0
0 0 0 0 0 0 0 0 0 0 0 0 0 0 0 0 0 0 0 0 0 0 0 0 0 0 0 0 0 0 0 0 0 0 0 0 0 0 0 0 0 0 0
0 0 0 0 0 0 0 0 0 0 0 0 0 0 0 0 0 0 0 0 0 0 0 0 0 0 0 0 0 0 0 0 0 0 0 0 0 0 0 0 0 0 0
-0 0 0 0 0 0 0 0 0 0 0 0 0 0 0 0 0 0 0 0 0 0 0 0 0 0 0 0 0 0 0 0 0 0 0 0 0 0 0 0 0 0 0
0 0 0 0 0 0 0 0 0 0 0 0 0 0 0 0 0 0 0 0 0 0 0 0 0 0 0 0 0 0 0 0 0 0 0 0 0 0 0 0 0 0 0
0 0 0 0 0 0 0 0 0 0 0 0 0 0 0 0 0 0 0 0 0 0 0 0 0 0 0 0 0 0 0 0 0 0 0 0 0 0 0 0 0 0 0
0 0 0 0 0 0 0 0 0 0 0 0 0 0 0 0 0 0 0 0 0 0 0 0 0 0 0 0 0 0 0 0 0 0 0 0 0 0 0 0 0 0 0
0 0 0 0 0 0 0 0 0 0 0 0 0 0 0 0 0 0 0 0 0 0 0 0 0 0 0 0 0 0 0 0 0 0 0 0 0 0 0 0 0 0 0
0 0 0 0 0 0 0 0 0 0 0 0 0 0 0 0 0 0 0 0 0 0 0 0 0 0 0 0 0 0 0 0 0 0 0 0 0 0 0 0 0 0 0
0 0 0 0 0 0 0 0 0 0 0 0 0 0 0 0 0 0 0 0 0 0 0 0 0 0 0 0 0 0 0 0 0 0 0 0 0 0 0 0 0 0 0
0 0 0 0 0 0 0 0 0 0 0 0 0 0 0 0 0 0 0 0 0 0 0 0 0 0 0 0 0 0 0 0 0 0 0 0 0 0 0 0 0 0 0
0 0 0 0 0 0 0 0 0 0 0 0 0 0 0 0 0 0 0 0 0 0 0 0 0 0 0 0 0 0 0 0 0 0 0 0 0 0 0 0 0 0 0
0 0 0 0 0 0 0 0 0 0 0 0 0 0 0 0 0 0 0 0 0 0 0 0 0 0 0 0 0 0 0 0 0 0 0 0 0 0 0 0 0 0 0
0 0 0 0 0 0 0 0 0 0 0 0 0 0 0 0 0 0 0 0 0 0 0 0 0 0 0 0 0 0 0 0 0 0 0 0 0 0 0 0 0 0 0
0 0 0 0 0 0 0 0 0 0 0 0 0 0 0 0 0 0 0 0 0 0 0 0 0 0 0 0 0 0 0 0 0 0 0 0 0 0 0 0 0 0 0
0 0 0 0 0 0 0 0 0 0 0 0 0 0 0 0 0 0 0 0 0 0 0 0 0 0 0 0 0 0 0 0 0 0 0 0 0 0 0 0 0 0 0
0 0 0 0 0 0 0 0 0 0 0 0 0 0 0 0 0 0 0 0 0 0 0 0 0 0 0 0 0 0 0 0 0 0 0 0 0 0 0 0 0 0 0
0 0 0 0 0 0 0 0 0 0 0 0 0 0 0 0 0 0 0 0 0 0 0 0 0 0 0 0 0 0 0 0 0 0 0 0 0 0 0 0 0 0 0
0 0 0 0 0 0 0 0 0 0 0 0 0 0 0 0 0 0 0 0 0 0 0 0 0 0 0 0 0 0 0 0 0 0 0 0 0 0 0 0 0 0 0
0 0 0 0 0 0 0 0 0 0 0 0 0 0 0 0 0 0 0 0 0 0 0 0 0 0 0 0 0 0 0 0 0 0 0 0 0 0 0 0 0 0 0
0 0 0 0 0 0 0 0 0 0 0 0 0 0 0 0 0 0 0 0 0 0 0 0 0 0 0 0 0 0 0 0 0 0 0 0 0 0 0 0 0 0 0
0 0 0 0 0 0 0 0 0 0 0 0 0 0 0 0 0 0 0 0 0 0 0 0 0 0 0 0 0 0 0 0 0 0 0 0 0 0 0 0 0 0 0
Wind_Speed
7 6 6 6 5 5 5 6 6 6 5 5 5 5 6 6 6 6 9 11 10 10 10 8 8 9 9 10 10 7 8 6 5 4 2 1 0 2 3 3 3 4 4
4 4 4 4 5 6 5 5 7 7 7 6 6 5 6 5 6 6 8 10 11 11 10 10 9 9 8 10 10 9 7 5 6 6 5 2 1 2 2 3 4 4 3
5 5 4 5 5 5 5 5 6 7 8 7 4 4 4 3 4 6 7 9 11 11 11 11 10 10 9 10 11 11 9 8 5 6 6 5 5 2 2 3 3 4 3
4 4 4 5 5 5 4 5 6 7 7 7 7 8 7 7 7 6 6 7 10 11 12 11 11 11 9 10 12 11 8 10 8 5 3 3 5 5 2 1 2 3 4
4 4 4 5 5 4 4 4 6 7 7 7 8 9 9 7 5 5 7 7 8 10 12 11 11 11 9 11 12 11 10 9 9 7 4 3 2 3 4 3 2 1 2
5 5 5 4 4 3 3 3 5 7 7 7 8 10 10 9 8 8 8 7 7 8 11 11 11 11 10 11 12 12 12 10 9 7 5 5 5 4 4 3 3 3 2
5 5 5 4 4 3 4 4 5 7 7 8 9 10 11 11 12 10 9 8 7 7 11 10 11 11 11 11 11 12 12 11 11 9 6 5 4 4 4 4 3 2 1
6 5 5 5 5 5 5 5 5 5 6 8 9 8 9 9 9 10 9 9 8 8 10 11 11 11 12 12 12 10 11 10 10 10 8 6 5 4 4 4 5 3 1
8 7 6 5 5 5 5 5 6 5 5 6 6 6 8 8 9 9 9 8 8 7 10 11 11 11 12 12 13 10 12 11 10 9 9 6 5 4 4 4 5 5 4
8 7 7 7 6 5 5 4 5 5 5 5 4 4 6 7 7 8 10 9 9 9 10 11 11 11 12 13 12 11 11 11 10 8 9 8 5 5 4 4 3 3 4
10 9 8 8 7 6 5 5 5 5 5 4 4 4 4 4 6 7 8 8 9 10 11 12 12 11 12 13 12 12 12 13 11 10 10 10 7 6 5 4 4 3 3
10 9 8 8 7 7 6 5 5 4 3 3 2 2 3 3 4 5 5 6 8 10 11 11 12 12 12 13 14 14 13 13 13 12 11 10 8 8 6 5 5 4 4
11 10 8 8 7 7 6 5 4 3 3 3 3 2 2 3 4 4 4 5 6 8 9 10 11 12 12 12 13 13 13 13 13 12 12 11 10 9 6 6 6 4 3
10 9 9 8 8 7 7 6 5 4 3 3 3 2 2 3 4 4 3 4 5 6 7 9 10 11 12 12 12 13 12 12 11 11 11 11 11 11 9 7 7 5 5
9 9 9 9 8 8 7 6 6 5 3 2 2 2 2 2 2 2 3 3 4 5 6 7 9 9 9 10 11 11 12 11 11 10 9 10 12 13 11 8 8 7 5
9 10 10 10 9 9 8 7 6 6 4 2 2 2 2 2 2 2 2 2 3 3 4 6 8 9 8 12 14 11 10 11 11 10 9 9 11 13 14 14 13 12 9
9 10 10 9 9 9 7 7 5 5 4 3 3 2 2 2 2 2 2 3 3 3 4 4 5 8 9 12 15 13 10 10 10 10 9 7 8 11 8 10 10 10 10
9 9 9 9 9 8 8 6 5 4 4 4 3 2 2 3 2 2 2 3 2 3 4 5 4 5 8 13 14 13 10 9 9 10 10 10 9 9 10 8 7 5 5
8 8 8 8 8 8 8 6 5 4 4 4 4 3 3 3 3 2 2 3 2 3 3 3 4 4 7 11 13 12 7 7 9 9 9 10 10 14 15 10 8 6 3
7 7 8 7 7 8 7 6 5 4 4 4 4 3 3 3 3 3 3 2 2 2 2 2 3 4 5 9 12 12 7 7 7 6 8 11 12 16 17 12 10 9 6
8 7 7 7 7 7 6 6 5 5 5 5 3 3 3 3 3 3 2 2 2 1 1 1 2 3 5 8 12 11 6 7 8 7 6 7 14 16 17 13 9 11 10
8 7 7 8 7 6 6 6 5 5 5 4 3 3 3 3 2 2 2 2 2 2 1 1 1 1 3 6 9 11 9 7 7 7 6 7 14 15 15 11 11 15 12
7 7 7 8 8 7 6 6 6 5 4 4 4 4 4 3 2 2 2 2 1 2 1 1 1 1 1 3 7 10 10 9 5 5 9 11 15 14 11 12 15 13 7
8 7 7 8 9 8 6 6 5 5 4 4 4 3 3 3 3 2 2 2 1 2 2 2 2 1 1 2 3 5 6 8 6 5 9 12 13 9 9 10 9 6 6
7 6 7 8 8 8 7 6 4 3 3 4 3 3 3 3 3 3 2 3 3 3 3 3 3 3 3 4 6 5 5 5 5 6 5 5 6 6 5 5 5 5 5
7 7 7 8 8 7 7 6 4 3 3 4 3 3 3 2 2 2 3 3 3 4 5 5 4 3 4 5 6 6 8 10 12 8 6 6 6 7 7 7 6 5 5
Wind_Direction
246 239 234 234 238 234 225 217 207 198 193 200 198 200 205 201 198 198 194 189 186 189 188 184 182 183 178 176 169 162 162 160 148 126 109 29 303 192 191 182 176 184 184
274 264 246 240 239 229 221 224 214 200 198 205 206 205 207 205 200 199 197 193 189 190 191 184 182 185 182 175 173 163 158 162 160 146 138 138 301 264 209 189 186 187 176
259 254 248 243 233 229 228 233 228 211 207 205 206 208 207 199 202 199 196 197 192 192 193 188 185 183 186 182 179 173 164 164 170 163 154 160 195 204 249 211 194 184 177
275 262 256 251 236 236 238 242 239 220 214 206 206 209 210 207 208 201 199 197 197 195 192 189 189 186 189 185 182 178 172 163 169 176 174 160 150 153 184 247 212 192 190
282 277 269 255 249 241 248 253 251 227 215 214 214 215 214 213 206 202 199 200 203 200 192 191 190 189 192 189 182 177 178 175 172 171 162 152 138 138 150 190 206 209 212
301 290 280 274 272 260 261 270 259 239 218 217 218 217 211 206 204 206 202 201 205 202 195 193 193 188 192 191 185 182 181 182 176 172 169 164 162 173 162 174 189 199 217
309 306 304 299 291 279 268 278 267 246 228 224 223 221 210 204 207 207 205 204 208 204 197 194 196 192 193 190 185 182 184 183 180 180 182 180 178 157 153 153 164 177 208
324 315 304 296 288 278 270 275 267 265 241 231 231 222 213 210 209 209 208 210 210 206 195 194 200 198 193 189 186 184 185 184 186 184 181 181 184 169 163 156 152 155 195
322 315 308 299 293 286 279 272 261 263 258 247 238 227 220 217 215 210 211 213 208 204 197 198 202 199 195 190 185 187 186 184 187 186 184 185 186 176 172 161 160 161 184
329 324 321 317 307 300 294 294 278 269 262 241 234 238 234 225 217 214 215 212 208 201 197 197 201 201 196 191 188 186 184 183 187 184 184 189 187 178 172 171 169 168 173
327 324 321 320 319 320 317 302 291 283 278 256 242 240 241 235 225 219 219 214 209 200 202 199 199 201 197 191 188 190 182 185 188 187 187 191 183 181 179 171 170 177 167
322 318 317 324 330 324 315 307 306 299 284 283 272 254 255 239 227 223 225 219 212 205 204 200 200 201 196 191 189 188 186 188 191 191 189 191 183 185 179 176 180 183 178
322 324 324 327 325 320 316 309 309 305 300 301 288 260 252 244 230 226 226 230 219 210 203 202 202 201 194 190 191 190 188 190 193 191 190 189 182 188 184 180 183 182 173
323 330 331 329 324 322 320 320 313 301 304 306 303 291 262 249 236 226 226 232 226 216 207 207 203 200 191 188 189 188 187 186 190 191 190 188 188 189 183 184 185 175 169
329 331 331 327 324 326 326 326 320 312 302 299 299 281 279 274 267 241 231 235 235 225 217 213 205 194 187 187 184 184 182 183 185 188 190 189 188 185 183 182 181 175 175
324 326 327 327 324 323 322 322 321 315 308 298 297 293 299 297 280 271 252 249 241 227 222 220 204 190 191 186 182 181 182 182 184 186 188 188 187 184 183 181 179 178 179
320 321 321 318 317 314 313 313 311 311 312 309 302 298 302 292 272 275 256 251 254 245 232 224 206 195 190 182 180 179 183 183 185 186 185 184 183 180 181 176 174 180 179
319 319 319 315 314 312 311 309 315 316 314 317 311 302 299 292 279 270 270 254 249 233 233 215 208 199 189 180 177 174 182 182 184 185 184 181 179 178 171 166 171 181 186
308 309 310 309 312 313 315 313 319 318 319 316 312 299 291 289 282 266 269 265 254 248 227 205 201 200 186 177 174 172 178 181 183 183 182 180 180 173 165 163 166 161 157
311 313 316 318 318 317 320 315 310 311 309 303 298 297 288 284 278 268 260 275 259 248 222 218 208 200 189 176 171 171 176 179 177 178 182 182 179 173 168 171 170 170 167
307 314 318 318 314 318 323 314 308 304 300 304 305 305 301 292 282 278 266 274 267 240 213 218 225 204 190 177 173 172 177 179 174 177 182 183 174 171 171 172 176 171 154
309 316 316 312 310 313 319 313 300 298 303 308 307 306 306 302 292 275 277 276 244 198 214 198 249 198 182 176 178 179 178 169 173 179 177 173 168 168 167 169 160 149 142
303 308 307 307 309 309 309 301 297 304 310 311 304 302 304 301 293 266 259 275 225 191 213 206 238 233 188 175 176 176 170 163 163 166 162 161 162 161 162 157 152 148 147
300 303 308 306 304 305 302 292 292 300 296 291 290 294 302 305 305 285 253 251 237 206 210 220 224 227 204 187 178 176 164 151 142 139 144 147 150 146 145 149 151 150 158
296 297 295 294 295 301 302 300 291 298 298 296 298 301 296 293 299 302 277 258 248 233 224 221 209 210 219 214 194 184 174 163 151 136 131 137 145 147 147 144 142 146 148
295 298 298 296 297 301 301 304 298 293 294 299 298 291 290 290 292 305 319 306 261 260 249 239 231 233 225 206 187 176 166 154 149 142 149 156 158 159 161 159 156 157 156